Volver al catálogo

STARLINK-36950

ActivoComunicacionesVLEO
NORAD 67992·PAYLOAD·🇺🇸 United States

Lanzado Feb 27, 2026 desde Vandenberg Space Force Base

Loading…

Próximos Pases (próximas 24 horas)

TLE

ActualizadoSource: CelesTrak SupGP

Época: Sep 15, 2026, 04:10 UTC

1 67992C 26039G   26258.17409722 -.00027662  00000+0 -10017-2 0  2581
2 67992  43.0029  58.9353 0001842 267.9559  13.8997 15.27596876    18

Sigue STARLINK-36950 en tiempo real con AllMySat

Download on the App Store